Location: Warszawa
(52.2500°N, 21.0000°E)
Time: 19:55:44
(UTC+02:00)

AO-91 - Pass Details

Date: 27 April 2024
Orbit: 441 x 737 km, 97.6° (Epoch: 20 May)

Event Time Altitude Azimuth Distance (km) Brightness Sun altitude
Rises 22:54:42 0° 9° (N) 2,449 ? -20.2°
Reaches altitude 10° 22:56:45 10° 3° (N) 1,579 ? -20.3°
Maximum altitude 22:59:57 45° 289° (WNW) 632 ? -20.5°
Enters shadow 23:00:59 33° 242° (WSW) 788 ? -20.6°
